Вернуться в каталог

STARLINK-30520

АктивенСвязьVLEO
NORAD 58010·PAYLOAD·🇺🇸 United States

Запущен Oct 5, 2023 с Cape Canaveral Space Force Station

Loading…

Ближайшие Пролёты (ближайшие 24 часа)

TLE

СвежийSource: CelesTrak SupGP

Эпоха: Sep 14, 2026, 20:42 UTC

1 58010C 23153V   26257.86298611  .00031591  00000+0  11444-2 0  2572
2 58010  43.0037  78.6196 0001814 271.8372 272.2046 15.27558137    12

Отслеживайте STARLINK-30520 в реальном времени с AllMySat

Download on the App Store